Location: Warszawa
(52.2500°N, 21.0000°E)
Time: 13:25:29
(UTC+02:00)

Vanguard 2 - Pass Details

Date: 12 February 2023
Orbit: 553 x 2927 km, 32.9° (Epoch: 27 March)

Event Time Altitude Azimuth Distance (km) Brightness Sun altitude
Rises 20:09:25 0° 234° (SW) 4,474 11.9 -31.7°
Reaches altitude 10° 20:12:30 10° 223° (SW) 3,814 11.3 -32.1°
Enters shadow 20:20:31 30° 173° (S) 3,239 10.4 -33.3°
Maximum altitude 20:21:10 30° 168° (SSE) 3,280 - -33.4°
Drops below altitude 10° 20:33:18 10° 116° (ESE) 5,412 - -35.0°
Sets 20:38:45 0° 108° (ESE) 6,642 - -35.8°
